STARLINK-35904, 66627

Orbit data source: Space-Track

STARLINK-35904, 66627 is a payload satellite owned by SpaceX/Seattle (US) in LEO that was launched on Sun, 23 Nov 2025 UTC via an FALCON 9 launch vehicle from the Air Force Western Test Range (AFWTR). Payload-class satellites include a variety of spacecraft equipped with specific instruments for various scientific and technological missions. These include communications satellites like Starlink; space stations such as the ISS; scientific satellites like the Hubble; Earth observation satellites from companies like Planet Labs, Umbra, and HawkEye 360; GPS; miniature CubeSats for education and research; and military/defense satellites.

Loading next visibility...
Identifier
66627, 2025-271L
Orbit
LEO
Country
Flag of USUS
Related business
Manufacturer
SpaceX/Seattle
Mission
Operational Commercial Communications
Bus & Motor
STARLINK V2MO, Unknown motor
Mass
575 kg wet, ~530 kg dry
Launch date (UTC)
2025-11-23 (2 months ago)
Launch vehicle
FALCON 9
Launch site
Air Force Western Test Range (AFWTR)
Object type
Payload
Rocket body
Debris
Shape & HBR
Box + 2 Pan, 17.7 m
Radar Cross Section
36.964 m²

Expand to show TLE details & history
Last TLE update: 5 hours ago

TLE from 5 hours ago
0 STARLINK-35904
1 66627U 25271L   26037.06539982  .00011460  00000-0  39883-3 0  9990
2 66627  53.1586 286.9124 0001363  95.1855 264.9302 15.30168974 12682
Epoch: 2026-02-06T01:34Z
TLE epoch observation values (Epoch: 2026-02-06T01:34:10.544Z)
Latitude
0.00004°
Longitude
127.15987°
Altitude
476.29 km
Speed
7.629 km/s
True Right ascension
19h 07m 38s
True Declination
0° 00' 00"
Sunlit
Object was in daylight at epoch
Visualization orbit readout
Latitude
Unknown
Longitude
Unknown
Altitude
Unknown
Speed
Unknown
Apparent Right ascension
Unknown
Apparent Declination
Unknown
Sunlit
N/A
Visualization observer readout
Local Sidereal Time
09:07:29
Azimuth
Unknown
Elevation
Unknown
Doppler factor
Unknown
Orbital elements
Apogee altitude
476.499 km
Perigee altitude
474.63 km
Semi-major axis
6,853.701 km
Eccentricity
0.00014
Inclination
53.1586°
RAAN
286.9124°
Arg. of periapsis
95.1855°
True anomaly
264.91464°
Mean anomaly
264.9302°
Eccentric anomaly
264.92242°
Mean motion
3.82521 °/min
Orbital period
94.11 mins
BSTAR
0.00039883
Loading maneuver chart data...
Computing Atmospheric mass density...
Loading historical data...
Loading historical data...
Loading historical data...
Loading historical data...
Loading historical data...
Loading historical data...
Loading historical data...

Documentation

Showing up to 5 results
|